This is the latest recevied weather packets stored in our database for station/object IZ1UQG-N2. If no packets are shown the sender has not sent any weather packets the latest 10 day(s).
| Time | Temp. | Humidity | Pressure | Rain* | Wind** | Luminosity | Snow |
|---|---|---|---|---|---|---|---|
| 1777201754 | 23.33° C | 32% | 1014.6 hPa | 0 mm | - | 735 W/m² | - |
| 1777201750 | 23.33° C | 32% | 1014.6 hPa | 0 mm | - | 735 W/m² | - |
| 1777201694 | 23.33° C | 32% | 1014.7 hPa | 0 mm | - | 723 W/m² | - |
| 1777201634 | 22.78° C | 31% | 1014.7 hPa | 0 mm | - | 728 W/m² | - |
| 1777201576 | 22.78° C | 32% | 1014.7 hPa | 0 mm | - | 693 W/m² | - |
| 1777201569 | 22.78° C | 32% | 1014.7 hPa | 0 mm | - | 693 W/m² | - |
| 1777201515 | 22.78° C | 32% | 1014.7 hPa | 0 mm | - | 724 W/m² | - |
| 1777201455 | 22.78° C | 32% | 1014.7 hPa | 0 mm | - | 765 W/m² | - |
| 1777201395 | 22.78° C | 32% | 1014.8 hPa | 0 mm | - | 768 W/m² | - |
| 1777201391 | 22.78° C | 32% | 1014.8 hPa | 0 mm | - | 768 W/m² | - |
| 1777201335 | 22.78° C | 35% | 1014.7 hPa | 0 mm | - | 763 W/m² | - |
| 1777201275 | 22.78° C | 34% | 1014.7 hPa | 0 mm | - | 754 W/m² | - |
| 1777201214 | 22.78° C | 35% | 1014.7 hPa | 0 mm | - | 742 W/m² | - |
| 1777201210 | 22.78° C | 35% | 1014.7 hPa | 0 mm | - | 742 W/m² | - |
| 1777201154 | 22.78° C | 35% | 1014.9 hPa | 0 mm | - | 742 W/m² | - |
| 1777201094 | 22.78° C | 35% | 1014.8 hPa | 0 mm | - | 756 W/m² | - |
| 1777201036 | 22.78° C | 35% | 1014.8 hPa | 0 mm | - | 754 W/m² | - |
| 1777201029 | 22.78° C | 35% | 1014.8 hPa | 0 mm | - | 754 W/m² | - |
| 1777200975 | 22.78° C | 35% | 1014.8 hPa | 0 mm | - | 775 W/m² | - |
| 1777200915 | 22.78° C | 35% | 1014.8 hPa | 0 mm | - | 761 W/m² | - |
| 1777200855 | 22.78° C | 35% | 1014.9 hPa | 0 mm | - | 735 W/m² | - |
| 1777200850 | 22.78° C | 35% | 1014.9 hPa | 0 mm | - | 735 W/m² | - |
| 1777200794 | 22.78° C | 34% | 1014.8 hPa | 0 mm | - | 724 W/m² | - |
| 1777200734 | 22.78° C | 34% | 1014.8 hPa | 0 mm | - | 747 W/m² | - |
| 1777200676 | 22.78° C | 34% | 1014.8 hPa | 0 mm | - | 791 W/m² | - |
* Rain latest hour (hover to see other rain measurements)
** Current wind speed in m/s (hover to see current wind gust speed)